contact:dominique.lefevre@mio.osupytheas.fr, maurice.libes@osupytheas.fr, didier.mallarino@osupytheas.fr
Project:EMSO http://www.emso-fr.org/EMSO-France
Depth: 2436.0 m
Title:EMSO Ligure Ouest : Data MII capteur AQUADOPP
Date,Latitude,Longitude,X_East,Y_North,Z_Up,Amplitude_X,Amplitude_Y,Amplitude_Z,Batterie,SoundSpeed,Heading,Pitch,Roll,Pressure,TIS,Speed,Direction
, degrees North, degrees East, m.s-1, m.s-1,m.s-1, 1, 1, 1, Volt, m.s-1, degree, degree, degree, dbar, degree_C, m.s-1, degree
2022-04-29T00:04:03,42.805,6.029,0.038,-0.016,0.026,102.0,102.0,101.0,13.4,1505.2,327.3,-0.8,1.8,2470.773,13.28,0.041,112.8
2022-04-29T00:07:03,42.805,6.029,0.024,-0.005,0.04,103.0,103.0,101.0,13.4,1505.2,322.2,-0.8,1.8,2470.782,13.28,0.024,101.8
2022-04-29T00:10:03,42.805,6.029,0.051,-0.014,0.014,101.0,103.0,101.0,13.4,1505.2,321.7,-0.7,1.8,2470.773,13.28,0.052,105.3
2022-04-29T00:13:03,42.805,6.029,0.005,-0.003,0.017,101.0,102.0,101.0,13.3,1505.2,329.9,-0.7,1.8,2470.757,13.28,0.005,121.0
2022-04-29T00:16:03,42.805,6.029,0.009,0.001,-0.028,102.0,102.0,101.0,13.4,1505.2,326.7,-0.8,1.8,2470.701,13.28,0.009,83.7
2022-04-29T00:19:03,42.805,6.029,0.022,-0.007,0.009,101.0,104.0,100.0,13.3,1505.2,332.1,-0.7,1.8,2470.664,13.28,0.023,107.6
2022-04-29T00:22:03,42.805,6.029,0.033,-0.005,0.02,102.0,103.0,100.0,13.4,1505.2,330.4,-0.8,1.8,2470.677,13.28,0.033,98.6
2022-04-29T00:25:03,42.805,6.029,0.024,-0.001,0.018,101.0,102.0,100.0,13.4,1505.2,329.7,-0.8,1.8,2470.637,13.28,0.024,92.4
2022-04-29T00:28:03,42.805,6.029,0.025,0.005,0.047,101.0,104.0,101.0,13.3,1505.2,325.1,-0.8,1.8,2470.608,13.28,0.025,78.7
2022-04-29T00:31:03,42.805,6.029,0.041,0.013,0.048,102.0,100.0,101.0,13.3,1505.2,322.1,-0.8,1.8,2470.575,13.28,0.043,72.4
2022-04-29T00:34:03,42.805,6.029,0.003,-0.003,0.008,101.0,103.0,101.0,13.3,1505.2,329.2,-0.7,1.8,2470.582,13.28,0.004,135.0
2022-04-29T00:37:03,42.805,6.029,0.031,-0.01,-0.015,103.0,103.0,100.0,13.4,1505.2,325.9,-0.7,1.8,2470.62,13.28,0.032,107.9
2022-04-29T00:40:03,42.805,6.029,0.032,0.022,0.038,102.0,101.0,101.0,13.4,1505.2,322.8,-0.8,1.8,2470.585,13.28,0.038,55.5
2022-04-29T00:43:03,42.805,6.029,0.014,-0.003,-0.004,102.0,103.0,100.0,13.4,1505.2,326.0,-0.8,1.8,2470.564,13.28,0.014,102.1
2022-04-29T00:46:03,42.805,6.029,0.015,0.001,-0.011,103.0,104.0,100.0,13.4,1505.2,326.9,-0.7,1.8,2470.549,13.28,0.015,86.2
2022-04-29T00:49:03,42.805,6.029,0.023,0.017,0.034,102.0,107.0,101.0,13.4,1505.2,328.1,-0.8,1.9,2470.548,13.28,0.028,53.5
2022-04-29T00:52:03,42.805,6.029,0.05,-0.011,-0.006,102.0,102.0,101.0,13.3,1505.2,328.4,-0.8,1.8,2470.571,13.28,0.051,102.4
2022-04-29T00:55:03,42.805,6.029,0.027,-0.026,0.006,100.0,105.0,100.0,13.4,1505.2,330.6,-0.7,1.8,2470.537,13.28,0.037,133.9
2022-04-29T00:58:03,42.805,6.029,0.027,-0.014,0.001,101.0,103.0,101.0,13.4,1505.2,328.7,-0.7,1.8,2470.577,13.28,0.03,117.4
2022-04-29T01:04:03,42.805,6.029,0.051,-0.009,0.003,103.0,105.0,104.0,13.4,1505.2,324.1,-0.8,1.8,2470.563,13.28,0.051,100.0
2022-04-29T01:07:04,42.805,6.029,0.044,0.006,0.034,101.0,104.0,100.0,13.4,1505.2,327.3,-0.8,1.8,2470.585,13.28,0.044,82.2
2022-04-29T01:10:03,42.805,6.029,0.046,-0.001,0.009,101.0,104.0,100.0,13.4,1505.2,323.1,-0.7,1.8,2470.579,13.28,0.046,91.2
2022-04-29T01:13:03,42.805,6.029,0.025,-0.014,-0.02,101.0,103.0,100.0,13.4,1505.2,325.0,-0.7,1.8,2470.565,13.28,0.028,119.3
2022-04-29T01:16:03,42.805,6.029,0.022,-0.027,-0.002,101.0,103.0,101.0,13.4,1505.2,323.7,-0.7,1.8,2470.546,13.28,0.034,140.8
2022-04-29T01:19:03,42.805,6.029,0.021,0.0,0.012,101.0,104.0,100.0,13.3,1505.2,328.4,-0.8,1.8,2470.558,13.28,0.021,90.0
2022-04-29T01:22:03,42.805,6.029,0.032,-0.004,0.006,102.0,103.0,100.0,13.4,1505.2,325.7,-0.8,1.8,2470.571,13.28,0.032,97.1
2022-04-29T01:25:03,42.805,6.029,0.032,0.006,0.034,101.0,104.0,101.0,13.4,1505.2,329.7,-0.8,1.8,2470.62,13.28,0.032,79.4
2022-04-29T01:28:03,42.805,6.029,0.049,-0.009,0.005,103.0,101.0,101.0,13.4,1505.2,326.8,-0.8,1.8,2470.6,13.28,0.049,100.4
2022-04-29T01:31:03,42.805,6.029,0.034,-0.015,0.0,102.0,105.0,100.0,13.3,1505.2,326.6,-0.8,1.8,2470.608,13.28,0.037,113.8
2022-04-29T01:34:03,42.805,6.029,0.036,-0.002,0.008,102.0,103.0,101.0,13.4,1505.2,329.3,-0.8,1.8,2470.618,13.28,0.036,93.2
2022-04-29T01:37:03,42.805,6.029,0.029,0.008,-0.005,100.0,101.0,101.0,13.3,1505.2,322.8,-0.8,1.8,2470.622,13.28,0.03,74.6
2022-04-29T01:40:03,42.805,6.029,0.016,-0.016,-0.004,100.0,104.0,100.0,13.4,1505.2,331.6,-0.8,1.8,2470.684,13.28,0.022,135.0
2022-04-29T01:43:03,42.805,6.029,0.035,0.005,0.009,102.0,101.0,100.0,13.4,1505.2,324.0,-0.8,1.8,2470.649,13.28,0.035,81.9
2022-04-29T01:46:03,42.805,6.029,0.028,-0.003,0.029,100.0,103.0,102.0,13.4,1505.2,325.9,-0.8,1.8,2470.672,13.28,0.028,96.1
2022-04-29T01:49:03,42.805,6.029,0.038,0.006,0.015,101.0,105.0,100.0,13.3,1505.2,331.0,-0.8,1.8,2470.696,13.28,0.038,81.0
2022-04-29T01:52:03,42.805,6.029,0.052,-0.003,0.043,101.0,104.0,100.0,13.4,1505.2,332.1,-0.8,1.8,2470.698,13.28,0.052,93.3
2022-04-29T01:55:03,42.805,6.029,0.042,-0.007,-0.001,102.0,103.0,100.0,13.4,1505.2,326.6,-0.8,1.8,2470.723,13.28,0.042,99.5
2022-04-29T01:58:03,42.805,6.029,0.033,0.006,0.014,102.0,103.0,101.0,13.4,1505.2,329.2,-0.7,1.8,2470.756,13.28,0.033,79.7
2022-04-29T02:01:03,42.805,6.029,0.036,-0.013,0.019,104.0,104.0,103.0,13.4,1505.2,323.4,-0.7,1.8,2470.727,13.28,0.038,109.9
2022-04-29T02:04:03,42.805,6.029,0.025,-0.002,0.032,101.0,103.0,102.0,13.4,1505.2,329.5,-0.7,1.8,2470.754,13.28,0.025,94.6
2022-04-29T02:07:03,42.805,6.029,0.031,-0.01,0.015,102.0,104.0,99.0,13.3,1505.2,328.7,-0.8,1.8,2470.753,13.28,0.032,107.9
2022-04-29T02:10:03,42.805,6.029,0.028,-0.001,-0.003,101.0,105.0,100.0,13.4,1505.2,328.0,-0.8,1.8,2470.747,13.28,0.028,92.0
2022-04-29T02:13:03,42.805,6.029,0.045,-0.017,0.017,100.0,104.0,101.0,13.4,1505.2,323.0,-0.8,1.9,2470.811,13.28,0.048,110.7
2022-04-29T02:16:03,42.805,6.029,0.032,0.0,0.014,104.0,104.0,100.0,13.4,1505.2,327.2,-0.8,1.8,2470.762,13.28,0.032,90.0
2022-04-29T02:19:03,42.805,6.029,0.036,-0.006,0.009,101.0,104.0,100.0,13.4,1505.2,328.4,-0.7,1.9,2470.765,13.28,0.036,99.5
2022-04-29T02:22:03,42.805,6.029,0.028,-0.006,-0.01,101.0,104.0,101.0,13.4,1505.2,327.4,-0.8,1.8,2470.786,13.28,0.028,102.1
2022-04-29T02:25:03,42.805,6.029,0.028,0.007,0.0,102.0,103.0,101.0,13.4,1505.2,329.5,-0.7,1.8,2470.766,13.28,0.028,76.0
2022-04-29T02:28:03,42.805,6.029,0.014,0.022,0.024,103.0,102.0,101.0,13.4,1505.2,324.1,-0.8,1.8,2470.787,13.28,0.026,32.5
2022-04-29T02:31:03,42.805,6.029,0.007,0.003,0.028,102.0,104.0,99.0,13.3,1505.2,329.4,-0.8,1.8,2470.828,13.28,0.007,66.8
2022-04-29T02:34:03,42.805,6.029,-0.002,-0.016,-0.009,103.0,104.0,100.0,13.3,1505.2,328.1,-0.7,1.8,2470.779,13.28,0.016,187.1
2022-04-29T02:37:03,42.805,6.029,0.013,0.003,0.03,99.0,105.0,102.0,13.4,1505.2,331.3,-0.7,1.8,2470.748,13.28,0.013,77.0
2022-04-29T02:40:03,42.805,6.029,0.035,0.009,0.019,103.0,104.0,100.0,13.3,1505.2,323.6,-0.7,1.8,2470.778,13.28,0.036,75.6
2022-04-29T02:43:03,42.805,6.029,0.025,-0.023,-0.014,103.0,103.0,100.0,13.3,1505.2,325.9,-0.8,1.8,2470.735,13.28,0.033,132.6
2022-04-29T02:46:03,42.805,6.029,0.026,0.002,-0.038,103.0,103.0,100.0,13.4,1505.2,323.4,-0.8,1.8,2470.692,13.28,0.026,85.6
2022-04-29T02:49:03,42.805,6.029,0.008,0.014,0.021,102.0,103.0,101.0,13.4,1505.2,326.2,-0.8,1.8,2470.73,13.28,0.016,29.7
2022-04-29T02:52:03,42.805,6.029,0.022,-0.002,0.045,102.0,103.0,101.0,13.3,1505.2,332.8,-0.7,1.8,2470.693,13.28,0.022,95.2
2022-04-29T02:55:03,42.805,6.029,-0.013,0.023,0.033,102.0,103.0,101.0,13.4,1505.2,322.0,-0.7,1.8,2470.722,13.28,0.026,330.5
2022-04-29T02:58:03,42.805,6.029,0.039,-0.009,0.006,102.0,102.0,101.0,13.3,1505.2,321.6,-0.7,1.8,2470.719,13.28,0.04,103.0
2022-04-29T03:04:03,42.805,6.029,0.031,0.005,0.011,101.0,103.0,101.0,13.4,1505.2,329.8,-0.7,1.9,2470.806,13.28,0.031,80.8
2022-04-29T03:07:03,42.805,6.029,0.032,-0.024,-0.002,101.0,103.0,101.0,13.4,1505.2,332.3,-0.8,1.8,2470.778,13.28,0.04,126.9
2022-04-29T03:10:03,42.805,6.029,0.033,-0.012,-0.011,101.0,103.0,101.0,13.3,1505.2,325.1,-0.8,1.8,2470.753,13.28,0.035,110.0
2022-04-29T03:13:03,42.805,6.029,0.018,0.0,0.031,102.0,105.0,100.0,13.3,1505.2,328.0,-0.7,1.8,2470.809,13.28,0.018,90.0
2022-04-29T03:16:03,42.805,6.029,0.026,-0.01,-0.01,102.0,102.0,100.0,13.3,1505.2,323.4,-0.7,1.8,2470.8,13.28,0.027,111.0
2022-04-29T03:19:03,42.805,6.029,0.02,-0.006,0.025,101.0,104.0,100.0,13.4,1505.2,327.6,-0.8,1.8,2470.759,13.28,0.02,106.7
2022-04-29T03:22:03,42.805,6.029,0.028,-0.018,-0.004,101.0,104.0,101.0,13.3,1505.2,323.8,-0.8,1.8,2470.775,13.28,0.033,122.7
2022-04-29T03:25:03,42.805,6.029,0.039,0.003,0.007,102.0,103.0,100.0,13.4,1505.2,322.0,-0.7,1.9,2470.793,13.28,0.039,85.6
2022-04-29T03:28:03,42.805,6.029,0.02,-0.021,-0.03,101.0,103.0,101.0,13.3,1505.2,328.4,-0.8,1.8,2470.769,13.28,0.028,136.4
2022-04-29T03:31:03,42.805,6.029,0.033,-0.007,0.011,101.0,103.0,101.0,13.4,1505.2,323.1,-0.7,1.8,2470.805,13.28,0.033,102.0
2022-04-29T03:34:03,42.805,6.029,0.021,-0.006,0.002,102.0,102.0,101.0,13.3,1505.2,324.1,-0.8,1.8,2470.793,13.28,0.021,105.9
2022-04-29T03:37:03,42.805,6.029,0.032,-0.004,-0.001,101.0,104.0,100.0,13.4,1505.2,326.5,-0.8,1.8,2470.786,13.28,0.032,97.1
2022-04-29T03:40:03,42.805,6.029,0.052,0.01,0.046,103.0,103.0,101.0,13.4,1505.2,330.2,-0.8,1.8,2470.78,13.28,0.052,79.1
2022-04-29T03:43:03,42.805,6.029,0.047,-0.011,0.005,101.0,103.0,102.0,13.3,1505.2,322.5,-0.8,1.8,2470.785,13.28,0.048,103.2
2022-04-29T03:46:03,42.805,6.029,0.013,-0.005,-0.048,101.0,102.0,101.0,13.4,1505.2,330.2,-0.8,1.8,2470.772,13.28,0.013,111.0
2022-04-29T03:49:03,42.805,6.029,0.008,0.02,0.039,101.0,102.0,101.0,13.3,1505.2,324.1,-0.7,1.8,2470.808,13.28,0.021,21.8
2022-04-29T03:52:03,42.805,6.029,0.041,0.004,0.029,102.0,104.0,100.0,13.4,1505.2,328.2,-0.8,1.8,2470.787,13.28,0.041,84.4
2022-04-29T03:55:03,42.805,6.029,0.044,0.0,0.002,102.0,104.0,101.0,13.3,1505.2,322.3,-0.7,1.9,2470.816,13.28,0.044,90.0
2022-04-29T03:58:03,42.805,6.029,0.021,0.0,-0.008,101.0,104.0,101.0,13.4,1505.2,330.2,-0.8,1.8,2470.79,13.28,0.021,90.0
2022-04-29T04:04:03,42.805,6.029,0.029,0.016,0.015,102.0,104.0,102.0,13.4,1505.2,325.7,-0.8,1.8,2470.893,13.28,0.033,61.1
2022-04-29T04:07:03,42.805,6.029,0.032,0.001,-0.007,101.0,104.0,102.0,13.4,1505.2,324.2,-0.8,1.8,2470.86,13.28,0.032,88.2
2022-04-29T04:10:03,42.805,6.029,0.027,0.029,0.017,104.0,102.0,100.0,13.3,1505.2,325.6,-0.8,1.8,2470.848,13.28,0.039,43.0
2022-04-29T04:13:03,42.805,6.029,0.056,0.01,0.041,103.0,104.0,100.0,13.3,1505.2,326.0,-0.8,1.8,2470.863,13.28,0.056,79.9
2022-04-29T04:16:03,42.805,6.029,0.051,0.001,0.035,102.0,104.0,101.0,13.4,1505.2,327.0,-0.8,1.8,2470.825,13.28,0.051,88.9
2022-04-29T04:19:03,42.805,6.029,0.046,0.003,0.053,101.0,104.0,101.0,13.3,1505.2,327.4,-0.8,1.8,2470.841,13.28,0.046,86.3
2022-04-29T04:22:03,42.805,6.029,0.042,0.0,0.016,102.0,105.0,100.0,13.4,1505.2,321.0,-0.7,1.8,2470.809,13.28,0.042,90.0
2022-04-29T04:25:03,42.805,6.029,0.01,0.0,0.0,101.0,104.0,101.0,13.3,1505.2,330.1,-0.8,1.8,2470.814,13.28,0.01,90.0
2022-04-29T04:28:03,42.805,6.029,0.021,-0.018,0.015,102.0,103.0,101.0,13.3,1505.2,329.8,-0.7,1.8,2470.819,13.28,0.027,130.6
2022-04-29T04:31:03,42.805,6.029,0.036,-0.003,-0.01,102.0,104.0,101.0,13.3,1505.2,329.3,-0.7,1.8,2470.821,13.28,0.036,94.8
2022-04-29T04:34:03,42.805,6.029,0.01,0.003,-0.001,101.0,104.0,101.0,13.3,1505.2,326.6,-0.7,1.8,2470.864,13.28,0.01,73.3
2022-04-29T04:37:03,42.805,6.029,0.035,0.02,0.008,101.0,103.0,102.0,13.4,1505.2,326.4,-0.8,1.8,2470.839,13.28,0.04,60.3
2022-04-29T04:40:03,42.805,6.029,0.021,0.015,0.015,102.0,105.0,102.0,13.4,1505.2,321.9,-0.8,1.8,2470.884,13.28,0.025,54.5
2022-04-29T04:43:03,42.805,6.029,0.024,0.003,-0.005,102.0,104.0,101.0,13.3,1505.2,325.2,-0.7,1.8,2470.869,13.28,0.024,82.9
2022-04-29T04:46:03,42.805,6.029,0.049,-0.011,0.015,102.0,105.0,100.0,13.3,1505.2,327.4,-0.7,1.8,2470.863,13.28,0.05,102.7
2022-04-29T04:49:03,42.805,6.029,0.032,0.019,0.052,102.0,104.0,101.0,13.3,1505.2,332.1,-0.8,1.8,2470.866,13.28,0.037,59.3
2022-04-29T04:52:03,42.805,6.029,0.01,0.008,0.02,102.0,104.0,100.0,13.3,1505.2,332.4,-0.8,1.8,2470.887,13.28,0.012,51.3
2022-04-29T04:55:03,42.805,6.029,0.021,0.007,-0.027,102.0,104.0,100.0,13.3,1505.2,328.8,-0.7,1.8,2470.872,13.28,0.022,71.6
2022-04-29T04:58:03,42.805,6.029,0.025,-0.005,0.003,102.0,103.0,102.0,13.4,1505.2,329.8,-0.8,1.8,2470.86,13.28,0.025,101.3
2022-04-29T05:04:03,42.805,6.029,0.02,-0.009,-0.012,101.0,104.0,100.0,13.3,1505.2,326.4,-0.8,1.9,2470.894,13.28,0.021,114.2
2022-04-29T05:07:03,42.805,6.029,0.022,0.006,0.016,102.0,104.0,100.0,13.4,1505.2,326.8,-0.7,1.8,2470.943,13.28,0.022,74.7
2022-04-29T05:10:03,42.805,6.029,0.036,-0.009,0.016,102.0,103.0,101.0,13.4,1505.2,330.3,-0.7,1.8,2470.825,13.28,0.037,104.0
2022-04-29T05:13:03,42.805,6.029,0.015,0.014,0.018,102.0,104.0,101.0,13.3,1505.2,321.5,-0.7,1.8,2470.768,13.28,0.02,47.0
2022-04-29T05:16:03,42.805,6.029,0.031,-0.003,0.035,102.0,104.0,100.0,13.4,1505.2,325.1,-0.7,1.8,2470.763,13.28,0.031,95.5
2022-04-29T05:19:03,42.805,6.029,0.035,0.004,0.049,103.0,103.0,100.0,13.4,1505.2,332.4,-0.8,1.8,2470.743,13.28,0.035,83.5
2022-04-29T05:22:03,42.805,6.029,0.033,-0.012,0.009,102.0,103.0,100.0,13.4,1505.2,323.9,-0.7,1.9,2470.763,13.28,0.035,110.0
2022-04-29T05:25:03,42.805,6.029,0.026,0.008,-0.001,103.0,103.0,101.0,13.4,1505.2,328.3,-0.8,1.8,2470.743,13.28,0.027,72.9
2022-04-29T05:28:03,42.805,6.029,0.034,-0.011,0.0,103.0,104.0,101.0,13.4,1505.2,324.1,-0.7,1.8,2470.788,13.28,0.035,107.9
2022-04-29T05:31:03,42.805,6.029,0.035,0.006,-0.019,101.0,102.0,101.0,13.3,1505.2,321.7,-0.7,1.8,2470.758,13.28,0.035,80.3
2022-04-29T05:34:03,42.805,6.029,0.023,0.005,0.006,102.0,104.0,101.0,13.3,1505.2,325.0,-0.8,1.8,2470.76,13.28,0.023,77.7
2022-04-29T05:37:03,42.805,6.029,0.03,0.003,-0.02,102.0,102.0,101.0,13.3,1505.2,329.1,-0.8,1.8,2470.815,13.28,0.03,84.3
2022-04-29T05:40:03,42.805,6.029,0.042,-0.009,0.025,102.0,103.0,101.0,13.4,1505.2,323.0,-0.8,1.8,2470.792,13.28,0.042,102.1
2022-04-29T05:43:03,42.805,6.029,0.026,0.006,0.017,101.0,103.0,101.0,13.4,1505.2,322.4,-0.7,1.8,2470.817,13.28,0.026,77.0
2022-04-29T05:46:03,42.805,6.029,0.067,-0.007,0.051,102.0,103.0,101.0,13.4,1505.2,330.1,-0.7,1.8,2470.815,13.28,0.067,96.0
2022-04-29T05:49:03,42.805,6.029,0.035,0.009,0.01,101.0,106.0,100.0,13.4,1505.2,324.1,-0.7,1.8,2470.836,13.28,0.036,75.6
2022-04-29T05:52:03,42.805,6.029,0.033,0.007,0.02,101.0,103.0,101.0,13.4,1505.2,329.7,-0.7,1.8,2470.844,13.28,0.033,78.0
2022-04-29T05:55:03,42.805,6.029,0.016,0.01,-0.007,102.0,106.0,99.0,13.4,1505.2,321.1,-0.8,1.8,2470.867,13.28,0.018,58.0
2022-04-29T05:58:03,42.805,6.029,0.048,-0.001,0.042,100.0,104.0,101.0,13.4,1505.2,328.2,-0.7,1.8,2470.879,13.28,0.048,91.2
2022-04-29T06:04:03,42.805,6.029,0.053,0.005,0.045,102.0,106.0,101.0,13.4,1505.2,327.0,-0.8,1.8,2470.853,13.28,0.053,84.6
2022-04-29T06:07:03,42.805,6.029,0.043,0.013,0.039,102.0,105.0,100.0,13.4,1505.2,326.8,-0.7,1.8,2470.897,13.28,0.044,73.2
2022-04-29T06:10:03,42.805,6.029,0.021,0.006,0.011,102.0,106.0,100.0,13.4,1505.2,326.4,-0.7,1.8,2470.831,13.28,0.021,74.1
2022-04-29T06:13:03,42.805,6.029,0.018,0.007,0.009,100.0,105.0,100.0,13.4,1505.2,327.9,-0.8,1.8,2470.875,13.28,0.019,68.8
2022-04-29T06:16:03,42.805,6.029,0.055,0.003,0.017,102.0,104.0,100.0,13.4,1505.2,324.1,-0.7,1.8,2470.868,13.28,0.055,86.9
2022-04-29T06:19:03,42.805,6.029,0.02,-0.005,0.018,102.0,104.0,99.0,13.3,1505.2,326.0,-0.8,1.8,2470.88,13.28,0.02,104.0
2022-04-29T06:22:03,42.805,6.029,0.023,0.01,0.014,101.0,104.0,102.0,13.4,1505.2,325.1,-0.7,1.8,2470.895,13.28,0.025,66.5
2022-04-29T06:25:03,42.805,6.029,0.02,-0.005,-0.017,101.0,104.0,100.0,13.4,1505.2,331.6,-0.7,1.8,2470.867,13.28,0.02,104.0
2022-04-29T06:28:03,42.805,6.029,0.031,0.023,0.021,101.0,105.0,101.0,13.4,1505.2,321.5,-0.8,1.8,2470.894,13.28,0.038,53.4
2022-04-29T06:31:03,42.805,6.029,0.02,-0.004,-0.011,100.0,105.0,101.0,13.4,1505.2,326.7,-0.8,1.8,2470.84,13.28,0.02,101.3
2022-04-29T06:34:03,42.805,6.029,0.024,0.0,0.007,101.0,105.0,100.0,13.3,1505.2,325.4,-0.8,1.8,2470.877,13.28,0.024,90.0
2022-04-29T06:37:03,42.805,6.029,0.028,-0.005,0.024,100.0,104.0,101.0,13.4,1505.2,325.2,-0.8,1.8,2470.841,13.28,0.028,100.1
2022-04-29T06:40:03,42.805,6.029,0.024,0.0,0.003,102.0,104.0,100.0,13.4,1505.2,327.6,-0.8,1.8,2470.879,13.28,0.024,90.0
2022-04-29T06:43:03,42.805,6.029,0.051,0.019,0.021,102.0,105.0,100.0,13.3,1505.2,323.0,-0.8,1.8,2470.914,13.28,0.054,69.6
2022-04-29T06:46:03,42.805,6.029,0.002,0.009,0.005,101.0,103.0,100.0,13.4,1505.2,331.6,-0.7,1.9,2470.889,13.28,0.009,12.5
2022-04-29T06:49:03,42.805,6.029,0.008,0.008,-0.014,102.0,105.0,99.0,13.4,1505.2,326.4,-0.8,1.8,2470.942,13.28,0.011,45.0
2022-04-29T06:52:03,42.805,6.029,0.026,0.012,0.029,101.0,105.0,100.0,13.4,1505.2,333.0,-0.8,1.9,2470.891,13.28,0.028,65.2
2022-04-29T06:55:03,42.805,6.029,0.012,-0.018,0.006,101.0,104.0,101.0,13.3,1505.2,330.1,-0.8,1.8,2470.896,13.28,0.021,146.3
2022-04-29T06:58:03,42.805,6.029,0.016,0.013,0.024,100.0,105.0,100.0,13.4,1505.2,325.7,-0.7,1.8,2470.935,13.28,0.02,50.9
2022-04-29T07:04:03,42.805,6.029,0.042,0.018,0.042,101.0,104.0,101.0,13.4,1505.2,321.7,-0.7,1.9,2470.927,13.28,0.045,66.8
2022-04-29T07:07:03,42.805,6.029,0.023,0.023,0.044,102.0,104.0,100.0,13.4,1505.2,324.0,-0.8,1.8,2470.912,13.28,0.032,45.0
2022-04-29T07:10:03,42.805,6.029,0.032,-0.009,-0.025,102.0,104.0,101.0,13.4,1505.2,329.7,-0.7,1.8,2470.895,13.28,0.033,105.7
2022-04-29T07:13:03,42.805,6.029,0.051,0.005,0.041,101.0,104.0,101.0,13.3,1505.2,322.6,-0.8,1.8,2470.908,13.28,0.051,84.4
2022-04-29T07:16:03,42.805,6.029,0.024,0.007,0.026,101.0,104.0,100.0,13.4,1505.2,329.1,-0.8,1.9,2470.907,13.28,0.025,73.7
2022-04-29T07:19:03,42.805,6.029,0.021,-0.003,-0.002,99.0,106.0,101.0,13.3,1505.2,325.0,-0.8,1.8,2470.92,13.28,0.021,98.1
2022-04-29T07:22:03,42.805,6.029,0.05,0.008,-0.006,101.0,104.0,100.0,13.4,1505.2,324.2,-0.8,1.8,2470.95,13.28,0.05,80.9
2022-04-29T07:25:03,42.805,6.029,0.034,0.005,0.008,101.0,105.0,101.0,13.4,1505.2,327.0,-0.8,1.8,2470.911,13.28,0.034,81.6
2022-04-29T07:28:03,42.805,6.029,0.018,0.003,0.011,101.0,104.0,100.0,13.4,1505.2,322.2,-0.8,1.8,2470.868,13.28,0.018,80.5
2022-04-29T07:31:03,42.805,6.029,0.021,-0.005,-0.017,102.0,104.0,100.0,13.4,1505.2,332.8,-0.7,1.8,2470.861,13.28,0.021,103.4
2022-04-29T07:34:03,42.805,6.029,0.052,0.005,0.024,104.0,105.0,100.0,13.4,1505.2,327.4,-0.7,1.8,2470.828,13.28,0.052,84.5
2022-04-29T07:37:03,42.805,6.029,0.027,-0.017,0.007,101.0,104.0,101.0,13.4,1505.2,331.4,-0.7,1.8,2470.858,13.28,0.031,122.2
2022-04-29T07:40:03,42.805,6.029,0.045,0.03,0.029,102.0,105.0,100.0,13.4,1505.2,323.4,-0.8,1.8,2470.879,13.28,0.054,56.3
2022-04-29T07:43:03,42.805,6.029,0.031,-0.002,-0.007,101.0,104.0,100.0,13.4,1505.2,321.8,-0.8,1.8,2470.885,13.28,0.031,93.7
2022-04-29T07:46:03,42.805,6.029,0.045,0.0,0.031,102.0,105.0,100.0,13.4,1505.2,331.8,-0.8,1.8,2470.868,13.28,0.045,90.0
2022-04-29T07:49:03,42.805,6.029,0.044,0.032,0.061,100.0,107.0,99.0,13.3,1505.2,324.7,-0.8,1.8,2470.89,13.28,0.054,54.0
2022-04-29T07:52:03,42.805,6.029,0.041,0.0,0.002,102.0,106.0,100.0,13.4,1505.2,330.4,-0.7,1.8,2470.866,13.28,0.041,90.0
2022-04-29T07:55:03,42.805,6.029,0.046,0.006,0.023,101.0,104.0,100.0,13.4,1505.2,325.3,-0.7,1.8,2470.886,13.28,0.046,82.6
2022-04-29T07:58:03,42.805,6.029,0.024,-0.012,-0.009,102.0,104.0,100.0,13.4,1505.2,330.3,-0.7,1.8,2470.854,13.28,0.026,116.6
2022-04-29T08:04:03,42.805,6.029,0.022,-0.01,-0.014,102.0,106.0,101.0,13.3,1505.2,323.7,-0.7,1.8,2470.848,13.28,0.024,114.4
2022-04-29T08:07:03,42.805,6.029,0.062,0.008,0.04,102.0,107.0,101.0,13.4,1505.2,331.4,-0.7,1.8,2470.825,13.28,0.062,82.7
2022-04-29T08:10:03,42.805,6.029,0.054,0.011,0.023,101.0,105.0,100.0,13.4,1505.2,322.1,-0.8,1.8,2470.829,13.28,0.055,78.5
2022-04-29T08:13:03,42.805,6.029,0.049,-0.002,0.018,101.0,105.0,101.0,13.4,1505.2,328.3,-0.8,1.8,2470.814,13.28,0.049,92.3
2022-04-29T08:16:03,42.805,6.029,0.037,0.002,0.005,101.0,105.0,100.0,13.3,1505.2,330.5,-0.8,1.8,2470.804,13.28,0.037,86.9
2022-04-29T08:19:03,42.805,6.029,0.032,0.023,0.029,101.0,106.0,100.0,13.4,1505.2,326.3,-0.7,1.9,2470.843,13.28,0.039,54.3
2022-04-29T08:22:03,42.805,6.029,0.057,0.017,0.028,100.0,105.0,101.0,13.4,1505.2,328.3,-0.7,1.9,2470.819,13.28,0.059,73.4
2022-04-29T08:25:03,42.805,6.029,0.041,-0.003,-0.004,102.0,106.0,101.0,13.4,1505.2,327.6,-0.7,1.8,2470.808,13.28,0.041,94.2
2022-04-29T08:28:03,42.805,6.029,0.048,-0.001,0.014,100.0,104.0,101.0,13.4,1505.2,331.7,-0.8,1.8,2470.779,13.28,0.048,91.2
2022-04-29T08:31:03,42.805,6.029,0.035,0.012,0.04,102.0,103.0,101.0,13.3,1505.2,322.8,-0.8,1.8,2470.751,13.28,0.037,71.1
2022-04-29T08:34:03,42.805,6.029,0.03,0.0,0.013,101.0,105.0,100.0,13.4,1505.2,324.5,-0.8,1.9,2470.774,13.28,0.03,90.0
2022-04-29T08:37:03,42.805,6.029,0.037,0.022,0.025,101.0,106.0,100.0,13.4,1505.2,331.2,-0.8,1.9,2470.757,13.28,0.043,59.3
2022-04-29T08:40:03,42.805,6.029,0.029,-0.008,-0.015,100.0,105.0,101.0,13.4,1505.2,325.2,-0.7,1.8,2470.719,13.28,0.03,105.4
2022-04-29T08:43:03,42.805,6.029,0.011,-0.012,0.03,102.0,105.0,100.0,13.3,1505.2,327.0,-0.7,1.8,2470.744,13.28,0.016,137.5
2022-04-29T08:46:03,42.805,6.029,0.045,0.008,0.048,99.0,104.0,101.0,13.4,1505.2,325.1,-0.8,1.8,2470.752,13.28,0.045,79.9
2022-04-29T08:49:03,42.805,6.029,0.033,-0.014,-0.016,101.0,105.0,100.0,13.3,1505.2,326.9,-0.8,1.8,2470.737,13.28,0.035,113.0
2022-04-29T08:52:03,42.805,6.029,0.033,-0.017,-0.005,101.0,106.0,101.0,13.4,1505.2,327.7,-0.8,1.8,2470.709,13.28,0.037,117.3
2022-04-29T08:55:03,42.805,6.029,0.053,-0.005,0.003,101.0,106.0,100.0,13.3,1505.2,332.1,-0.7,1.8,2470.706,13.28,0.053,95.4
2022-04-29T08:58:03,42.805,6.029,0.019,-0.023,-0.036,101.0,104.0,100.0,13.4,1505.2,332.4,-0.8,1.8,2470.693,13.28,0.029,140.4
2022-04-29T09:04:03,42.805,6.029,0.011,0.004,0.012,101.0,105.0,101.0,13.4,1505.2,327.5,-0.8,1.8,2470.642,13.28,0.011,70.0
2022-04-29T09:07:03,42.805,6.029,0.036,-0.01,0.029,101.0,105.0,99.0,13.4,1505.2,323.1,-0.8,1.8,2470.669,13.28,0.037,105.5
2022-04-29T09:10:03,42.805,6.029,0.029,0.002,0.026,101.0,104.0,100.0,13.4,1505.2,328.2,-0.8,1.8,2470.634,13.28,0.029,86.1
2022-04-29T09:13:03,42.805,6.029,0.031,0.009,0.008,101.0,104.0,100.0,13.4,1505.2,328.1,-0.8,1.8,2470.63,13.28,0.032,73.8
2022-04-29T09:16:03,42.805,6.029,0.048,0.008,0.035,101.0,106.0,100.0,13.4,1505.2,321.7,-0.7,1.8,2470.622,13.28,0.048,80.5
2022-04-29T09:19:03,42.805,6.029,0.012,0.014,0.03,103.0,104.0,100.0,13.3,1505.2,327.1,-0.8,1.8,2470.575,13.28,0.018,40.6
2022-04-29T09:22:03,42.805,6.029,0.006,-0.023,-0.015,101.0,104.0,100.0,13.4,1505.2,329.3,-0.7,1.8,2470.562,13.28,0.023,165.4
2022-04-29T09:25:03,42.805,6.029,0.046,0.004,0.015,101.0,103.0,100.0,13.4,1505.2,329.0,-0.8,1.8,2470.599,13.28,0.046,85.0
2022-04-29T09:28:03,42.805,6.029,0.048,-0.007,-0.002,102.0,105.0,100.0,13.4,1505.2,329.5,-0.7,1.8,2470.587,13.28,0.048,98.3
2022-04-29T09:31:03,42.805,6.029,0.057,-0.004,0.041,101.0,105.0,101.0,13.4,1505.2,329.2,-0.8,1.8,2470.594,13.28,0.057,94.0
2022-04-29T09:34:03,42.805,6.029,0.051,-0.018,0.013,103.0,103.0,100.0,13.4,1505.2,330.9,-0.7,1.8,2470.578,13.28,0.054,109.4
2022-04-29T09:37:03,42.805,6.029,0.016,0.021,0.014,102.0,104.0,100.0,13.4,1505.2,323.3,-0.8,1.8,2470.594,13.28,0.026,37.3
2022-04-29T09:40:03,42.805,6.029,0.033,-0.006,0.015,102.0,105.0,100.0,13.3,1505.2,329.5,-0.7,1.8,2470.593,13.28,0.033,100.3
2022-04-29T09:43:03,42.805,6.029,0.029,-0.022,-0.003,101.0,104.0,100.0,13.4,1505.2,327.0,-0.7,1.8,2470.564,13.28,0.036,127.2
2022-04-29T09:46:03,42.805,6.029,0.044,0.0,-0.025,101.0,104.0,101.0,13.4,1505.2,328.2,-0.7,1.8,2470.7,13.28,0.044,90.0
2022-04-29T09:49:03,42.805,6.029,0.069,0.005,0.035,101.0,102.0,100.0,13.4,1505.2,322.8,-0.8,1.8,2470.628,13.28,0.069,85.9
2022-04-29T09:52:03,42.805,6.029,0.054,-0.015,0.025,103.0,105.0,100.0,13.4,1505.2,332.8,-0.8,1.8,2470.603,13.28,0.056,105.5
2022-04-29T09:55:03,42.805,6.029,0.067,-0.016,0.002,103.0,106.0,99.0,13.3,1505.2,325.4,-0.7,1.8,2470.678,13.28,0.068,103.4
2022-04-29T09:58:03,42.805,6.029,0.043,0.001,0.011,102.0,105.0,101.0,13.3,1505.2,327.4,-0.7,1.8,2470.546,13.28,0.043,88.7